Date,TemperatureHighF,TemperatureAvgF,TemperatureLowF,DewpointHighF,DewpointAvgF,DewpointLowF,HumidityHigh,HumidityAvg,HumidityLow,PressureMaxIn,PressureMinIn,WindSpeedMaxMPH,WindSpeedAvgMPH,GustSpeedMaxMPH,PrecipitationSumIn
2013-1-1,31.8,29.0,20.5,24.1,17.5,0.6,75,62,51,30.01,25.16,21,11,37,0.00
2013-1-2,25.3,18.1,-2.6,13.6,9.0,-10.8,86,68,53,30.25,29.98,16,8,28,0.00
2013-1-3,16.9,8.6,-0.6,5.7,-1.1,-6.0,78,65,52,30.28,29.98,7,4,9,0.00
2013-1-4,34.9,27.2,16.7,22.6,15.6,7.3,77,62,47,29.98,29.86,15,6,29,0.00
2013-1-5,36.7,32.3,25.3,24.7,20.4,15.0,81,62,47,30.28,29.92,22,11,35,0.00
2013-1-6,36.7,31.2,25.5,28.4,23.8,17.5,87,75,56,30.19,29.92,12,4,12,0.00
2013-1-7,35.2,29.9,18.5,29.3,22.5,15.3,87,74,58,30.40,30.01,20,5,33,0.00
2013-1-8,36.7,24.6,11.8,27.2,18.6,7.7,95,79,54,30.40,30.28,10,2,10,0.00
2013-1-9,42.1,29.6,17.4,30.7,22.1,14.2,91,75,44,30.40,30.01,14,6,32,0.00
2013-1-10,42.1,37.2,29.5,29.1,24.2,21.0,77,59,48,30.57,30.16,31,14,59,0.04
2013-1-11,37.9,32.4,27.5,36.1,27.1,21.8,93,81,59,30.57,30.13,14,5,25,0.08
2013-1-12,46.2,41.1,37.8,44.4,39.9,35.8,100,95,88,30.16,30.10,12,6,21,0.24
2013-1-13,46.0,42.8,38.7,45.9,41.5,37.4,100,95,88,30.16,29.95,17,9,29,0.00
2013-1-14,47.1,42.3,34.5,46.0,34.2,22.1,100,74,54,30.34,29.86,20,12,37,0.00
2013-1-15,38.5,34.1,30.6,25.9,22.2,18.3,74,62,47,30.37,30.25,10,5,18,0.00
2013-1-16,32.7,32.0,30.6,32.5,28.7,21.4,100,88,65,30.25,29.83,9,2,9,0.00
2013-1-17,36.7,31.1,24.1,31.3,21.8,8.7,95,69,47,30.19,29.86,18,9,29,0.00
2013-1-18,24.8,20.1,13.8,9.3,4.7,-3.2,66,51,34,30.42,30.13,15,8,24,0.00
2013-1-19,42.8,34.8,23.5,25.7,18.5,8.5,60,51,46,30.28,29.81,20,13,32,0.04
2013-1-20,44.6,36.3,23.5,36.3,21.6,9.5,79,56,42,30.04,29.57,21,16,41,0.04
2013-1-21,29.1,24.3,19.2,19.3,13.6,9.0,81,64,49,30.10,29.83,15,5,23,0.12
2013-1-22,22.3,16.9,7.0,15.6,3.9,-6.2,80,59,32,30.13,29.81,21,12,32,0.00
2013-1-23,12.2,7.2,2.5,2.5,-5.0,-9.6,79,57,44,30.25,30.13,17,8,30,0.00
2013-1-24,15.6,7.8,-1.5,1.6,-3.3,-8.8,78,61,41,30.40,30.19,28,9,40,0.00
2013-1-25,21.2,13.3,5.9,12.1,1.0,-6.5,85,59,40,30.42,30.10,18,8,30,0.00
2013-1-26,21.4,14.3,8.6,10.2,4.9,-0.2,87,68,44,30.37,30.10,20,7,28,0.00
2013-1-27,27.1,17.8,9.7,11.8,4.0,-3.2,87,58,30,30.54,30.37,10,5,10,0.00
2013-1-29,38.1,38.0,37.9,34.9,31.6,12.7,88,80,35,30.04,30.04,18,14,29,0.00
2013-1-30,55.4,48.3,38.1,53.2,46.0,34.9,100,92,88,30.04,29.33,21,16,38,0.24
2013-1-31,54.1,40.0,27.1,54.1,31.4,16.0,100,73,44,29.66,28.89,32,17,60,0.59
2013-2-1,30.4,24.7,20.5,23.0,11.1,3.8,83,57,45,30.19,29.66,28,14,45,0.00
2013-2-2,30.0,22.2,12.6,17.2,9.8,2.5,83,60,41,30.25,30.04,22,8,32,0.00
2013-2-3,30.7,24.4,18.9,19.7,14.8,9.6,87,68,46,30.07,29.81,5,2,5,0.00
2013-2-4,28.2,22.5,16.5,22.5,12.7,6.6,80,66,45,29.98,29.81,20,10,33,0.00
2013-2-5,30.7,24.6,18.1,19.7,11.5,8.5,80,58,42,30.04,29.89,7,2,7,0.00
2013-2-6,35.6,28.2,20.1,29.3,16.2,-0.3,87,64,30,30.40,29.89,23,10,41,0.00
2013-2-7,27.5,21.7,15.3,11.1,5.6,2.1,72,51,36,30.57,30.40,8,5,8,0.00
2013-2-8,28.9,25.9,21.2,25.5,18.3,6.0,92,74,51,30.40,29.83,15,6,26,0.00
2013-2-9,25.0,21.8,13.1,22.5,10.9,0.5,91,64,36,30.40,29.86,20,12,29,0.00
2013-2-10,25.3,15.4,3.7,10.2,3.6,-4.4,87,62,28,30.51,30.28,5,0,5,0.00
2013-2-11,37.6,30.1,16.5,35.7,24.3,7.3,93,79,54,30.28,29.66,20,11,30,0.04
2013-2-12,38.8,36.0,34.0,30.9,25.9,21.4,84,67,58,29.95,29.72,20,10,36,0.00
2013-2-13,40.5,34.9,32.0,28.6,22.9,17.6,84,62,43,29.92,29.75,12,3,12,0.00
2013-2-14,40.3,33.6,27.0,27.1,22.4,19.4,80,64,49,29.95,29.75,12,3,12,0.00
2013-2-15,50.2,39.6,32.0,34.0,25.2,20.1,92,57,43,30.04,29.89,17,10,26,0.00
2013-2-16,34.5,31.0,25.3,31.4,18.1,6.9,92,60,45,30.04,29.86,14,8,20,0.00
2013-2-17,25.7,21.0,13.8,10.0,3.8,-3.4,59,47,31,29.95,29.72,29,17,53,0.00
2013-2-18,28.4,19.0,9.7,11.3,0.4,-4.6,67,45,27,30.22,29.95,26,14,45,0.00
2013-2-19,43.0,31.4,19.6,34.3,20.9,6.4,95,67,43,30.16,29.63,26,8,45,0.04
2013-2-20,33.8,29.8,25.9,26.9,14.8,6.3,80,54,38,29.92,29.69,25,18,44,0.00
2013-2-21,26.2,22.5,19.8,13.8,10.2,6.0,67,59,51,30.40,29.89,26,17,43,0.00
2013-2-22,37.9,30.1,20.3,23.9,18.6,12.3,80,63,51,30.45,30.25,12,4,23,0.00
2013-2-23,37.4,35.7,33.4,35.4,30.2,22.4,93,81,60,30.25,29.89,14,7,28,0.00
2013-2-24,41.5,35.8,33.1,37.4,30.9,23.7,96,83,63,29.98,29.77,18,7,28,0.04
2013-2-25,43.5,36.2,27.9,36.5,27.8,24.4,91,73,52,30.25,29.98,12,2,12,0.00
2013-2-26,48.2,38.6,27.7,37.5,27.8,22.9,92,67,44,30.31,30.04,12,3,12,0.00
2013-2-27,39.7,35.9,32.7,37.6,32.2,26.6,96,87,63,30.04,29.57,13,5,21,0.59
2013-2-28,43.9,38.7,33.4,39.9,34.6,29.4,100,86,65,29.63,29.57,10,2,10,0.20
2013-3-1,42.4,36.5,33.1,34.7,30.9,24.9,93,80,64,29.77,29.60,16,7,25,0.00
2013-3-2,38.7,32.1,27.0,26.4,23.4,21.1,80,70,58,29.81,29.72,14,10,25,0.00
2013-3-3,33.3,27.7,23.2,26.1,19.6,14.4,85,72,63,29.77,29.72,22,11,29,0.00
2013-3-4,33.4,29.5,26.4,22.7,20.1,17.3,74,68,58,29.92,29.77,28,17,46,0.00
2013-3-5,42.4,34.2,29.3,26.2,23.1,19.7,81,64,48,30.10,29.92,14,9,24,0.00
2013-3-6,44.6,36.6,29.7,35.8,26.3,20.9,84,67,51,30.13,30.04,16,9,33,0.00
2013-3-7,41.0,35.6,32.0,32.7,25.7,20.5,100,69,47,30.16,30.10,13,9,24,0.00
2013-3-8,33.8,32.2,30.6,30.5,25.9,18.6,96,79,54,30.31,30.10,16,10,23,0.08
2013-3-9,48.0,35.9,26.1,32.3,23.1,14.7,87,63,32,30.37,30.28,7,4,7,0.12
2013-3-10,53.6,40.8,24.6,37.2,25.5,20.7,91,58,31,30.37,30.19,17,8,26,0.04
2013-3-11,49.5,44.1,36.9,40.5,34.1,27.7,80,68,53,30.22,29.98,21,13,37,0.00
2013-3-12,53.6,48.2,38.3,51.0,43.2,30.9,93,83,73,29.98,29.69,21,14,36,0.79
2013-3-13,47.7,40.4,32.9,32.6,25.6,18.6,81,57,37,29.89,29.77,17,11,29,0.00
2013-3-14,34.0,29.3,26.2,23.8,14.0,6.2,68,53,41,29.92,29.83,28,17,41,0.04
2013-3-15,40.1,32.1,20.7,30.1,18.8,7.3,86,58,41,29.95,29.66,18,9,38,0.00
2013-3-16,39.6,31.9,24.3,26.3,16.3,12.0,81,53,36,29.92,29.75,16,7,28,0.00
2013-3-17,36.7,29.3,21.2,21.1,9.8,2.8,64,46,27,30.34,29.92,18,12,32,0.00
2013-3-18,40.6,29.5,16.0,28.7,10.0,2.2,92,49,21,30.45,30.07,12,4,20,0.00
2013-3-19,32.9,31.7,29.5,31.4,28.8,25.1,96,89,77,30.07,29.69,18,5,33,0.00
2013-3-20,34.5,29.6,22.3,25.8,18.5,14.3,77,64,45,29.81,29.77,17,9,29,0.00
2013-3-21,35.4,28.1,16.9,25.6,14.4,6.7,91,60,35,29.81,29.66,14,6,14,0.00
2013-3-22,38.5,30.2,21.2,29.8,19.9,10.2,78,65,52,29.81,29.69,18,6,38,0.00
2013-3-23,42.4,35.2,30.2,25.8,22.3,18.2,78,60,47,29.89,29.77,28,16,41,0.00
2013-3-24,45.0,37.1,30.9,26.9,22.4,19.8,66,56,39,29.89,29.75,14,9,29,0.00
2013-3-25,47.7,38.5,30.2,31.0,25.3,21.2,71,59,48,29.77,29.51,15,8,21,0.00
2013-3-26,49.5,40.8,33.3,30.8,24.7,14.7,78,55,28,29.81,27.97,9,4,20,0.00
2013-3-27,52.5,42.0,30.4,37.7,26.9,15.3,77,56,37,29.92,26.97,22,8,33,0.00
2013-3-28,49.5,42.7,37.4,35.5,31.5,28.4,78,65,50,30.10,29.92,16,10,23,0.00
2013-3-29,54.0,45.0,37.6,39.1,30.4,26.3,72,57,40,30.13,30.04,17,11,30,0.00
2013-3-30,56.3,44.2,31.1,39.8,24.3,15.9,85,50,25,30.13,30.04,13,6,25,0.00
2013-3-31,56.8,43.7,28.6,40.2,26.3,16.0,88,54,28,30.10,29.69,18,8,33,0.00
2013-4-1,53.4,41.3,32.0,49.7,32.7,11.7,100,74,36,29.86,29.54,32,12,52,0.00
2013-4-2,38.8,33.6,28.9,28.1,19.6,11.9,85,58,34,30.01,29.86,30,14,45,0.00
2013-4-3,40.5,34.7,29.3,25.2,16.6,8.9,74,50,28,30.28,29.98,28,16,43,0.00
2013-4-4,52.9,41.6,28.6,28.3,18.5,13.0,68,43,22,30.34,29.95,16,10,26,0.00
2013-4-5,55.4,45.1,34.9,29.9,22.6,16.0,69,42,26,29.98,29.77,24,13,38,0.00
2013-4-6,46.9,38.1,30.6,29.2,9.4,0.9,69,33,16,30.28,29.98,20,9,32,0.00
2013-4-7,58.1,45.2,31.6,38.2,24.0,12.1,68,45,21,30.22,29.83,26,13,47,0.00
2013-4-8,60.4,50.2,42.4,39.3,32.6,27.1,78,53,29,30.13,29.95,13,5,13,0.00
2013-4-9,61.5,56.1,52.2,48.1,42.0,32.8,71,59,45,33.92,29.81,21,11,37,0.00
2013-4-10,56.7,48.7,-6.2,50.5,44.7,-7.2,100,87,67,29.98,29.83,14,4,14,0.43
2013-4-11,46.6,40.5,33.6,44.7,29.6,18.5,93,67,40,30.13,29.89,20,12,30,0.04
2013-4-12,40.5,36.6,33.1,37.4,32.6,22.9,95,86,66,30.13,29.77,10,6,10,0.51
2013-4-13,49.5,43.1,38.3,42.7,36.7,33.6,95,79,58,29.92,29.81,14,4,30,0.00
2013-4-14,47.5,42.3,34.3,37.2,30.1,20.1,85,64,41,30.22,29.92,18,9,30,0.00
2013-4-15,57.6,44.9,30.7,33.9,27.7,21.8,92,56,31,30.37,30.22,23,7,35,0.00
2013-4-16,58.8,52.8,46.2,53.7,40.0,26.7,87,63,44,30.28,30.01,23,16,41,0.12
2013-4-17,62.4,53.4,43.7,43.6,33.5,25.4,76,50,25,30.31,30.13,18,10,38,0.08
2013-4-18,64.6,51.9,37.0,46.4,33.0,24.4,81,51,28,30.34,29.98,25,11,47,0.00
2013-4-19,70.3,61.5,44.4,60.3,53.7,39.3,93,76,63,30.01,29.51,37,18,60,0.43
2013-4-20,52.9,45.3,36.1,40.0,31.5,21.0,88,61,34,30.31,29.72,21,11,37,0.04
2013-4-21,50.9,40.5,31.5,21.9,18.2,12.9,60,42,24,30.63,30.31,15,7,24,0.00
2013-4-22,59.2,46.9,34.9,29.9,21.4,15.0,66,40,19,30.69,30.45,13,6,24,0.00
2013-4-23,54.9,45.5,33.8,40.0,32.4,25.7,81,61,50,30.51,30.13,9,3,9,0.00
2013-4-24,69.8,51.7,34.5,50.3,38.0,25.0,92,64,36,30.13,29.66,16,7,36,0.00
2013-4-25,65.5,52.4,41.7,57.0,34.4,20.5,74,52,29,30.25,29.72,20,12,41,0.00
2013-4-26,58.8,48.0,35.4,42.8,31.1,24.4,81,55,33,30.42,30.24,14,6,28,0.00
2013-4-27,65.3,51.3,35.1,41.6,30.2,22.0,81,49,20,30.42,30.25,8,3,8,0.00
2013-4-28,70.7,57.6,38.7,44.8,34.6,29.4,89,47,23,30.31,30.07,15,4,32,0.00
2013-4-29,61.3,57.5,52.7,49.3,40.0,28.7,82,54,34,30.22,30.16,17,11,32,0.00
2013-4-30,71.4,58.7,49.6,57.1,40.1,28.4,92,55,26,30.28,30.19,12,5,23,0.00
2013-5-1,66.2,60.5,54.0,40.4,27.6,18.3,60,30,16,30.42,30.28,10,4,23,0.00
2013-5-2,77.9,65.4,54.9,49.5,38.7,26.3,77,41,21,30.45,30.22,14,3,24,0.00
2013-5-3,90.1,64.7,55.0,63.1,35.1,26.6,47,34,20,30.45,30.28,14,6,23,0.00
2013-5-4,74.7,63.4,47.7,55.3,39.9,25.9,79,46,22,30.34,30.13,12,4,12,0.00
2013-5-5,74.1,63.0,50.4,47.2,37.2,23.8,79,44,19,30.28,30.10,14,7,23,0.00
2013-5-6,72.5,62.0,48.0,52.8,38.5,17.7,85,48,13,30.22,30.04,14,7,21,0.00
2013-5-7,77.5,67.0,52.7,57.5,48.5,40.3,89,55,30,30.13,29.98,10,5,25,0.00
2013-5-8,71.8,64.6,59.0,62.8,56.0,46.6,93,74,53,30.10,29.95,10,4,10,0.00
2013-5-9,68.4,61.6,54.1,56.6,52.6,45.4,96,74,47,29.95,29.83,10,4,10,0.00
2013-5-10,81.0,65.9,52.9,69.8,52.5,46.0,96,65,40,29.95,29.77,14,4,25,0.00
2013-5-11,69.1,64.0,58.1,64.0,57.6,49.9,93,80,54,29.81,29.60,15,9,25,0.00
2013-5-12,72.3,55.5,46.9,60.9,40.7,26.1,80,60,31,29.86,29.63,20,9,35,0.00
2013-5-13,52.0,48.5,41.4,38.3,30.3,27.4,69,50,43,30.10,29.83,17,11,25,0.00
2013-5-14,62.6,49.2,39.7,46.2,32.0,24.6,85,54,32,30.13,29.98,12,4,12,0.00
2013-5-15,61.7,50.3,36.3,52.5,39.0,30.3,88,67,44,30.07,29.63,20,7,40,0.00
2013-5-16,77.5,63.8,46.9,50.2,37.8,29.5,85,43,22,29.86,29.66,24,10,44,0.00
2013-5-17,68.9,59.8,51.1,46.5,40.2,34.2,71,50,30,30.37,29.83,12,7,24,0.00
2013-5-18,70.9,60.2,45.3,50.2,42.7,35.5,89,57,28,30.90,30.09,16,5,25,0.00
2013-5-19,60.8,58.0,53.1,56.2,53.3,48.7,93,84,66,30.30,30.15,14,7,24,0.00
2013-5-20,72.9,64.9,58.3,63.6,56.8,53.0,96,76,52,30.15,29.92,13,4,23,0.00
2013-5-21,82.8,70.6,61.9,66.7,61.8,55.6,96,76,48,29.95,29.77,21,6,32,0.00
2013-5-22,74.8,68.6,64.0,68.9,64.4,61.9,100,87,73,29.89,29.77,16,8,33,0.00
2013-5-23,71.2,70.0,66.4,68.4,63.8,59.3,93,81,70,29.83,29.74,15,11,26,0.00
2013-5-24,70.5,56.6,44.8,69.3,53.6,41.4,96,90,81,30.03,29.65,15,8,26,0.61
2013-5-25,46.8,45.3,43.9,44.3,41.7,38.7,93,87,81,30.00,29.95,20,14,33,0.81
2013-5-26,54.9,49.0,43.9,46.5,38.6,33.2,95,69,48,30.15,29.89,24,13,36,0.08
2013-5-27,66.9,55.2,43.3,45.4,35.0,25.9,95,50,29,30.21,30.12,20,9,28,0.00
2013-5-28,66.6,57.7,45.3,55.3,43.0,32.6,88,61,32,30.24,30.12,15,5,23,0.00
2013-5-29,72.0,64.4,59.2,69.5,60.1,54.9,100,86,68,30.12,29.92,30,9,55,1.76
2013-5-30,79.3,69.7,61.0,65.2,60.8,55.3,100,76,46,30.12,30.03,13,4,24,0.00
2013-5-31,76.1,72.2,64.8,65.4,59.1,50.7,96,66,41,30.12,29.92,9,4,9,0.00
2013-6-1,84.9,77.9,72.1,67.1,63.4,59.4,81,62,45,29.98,29.83,13,7,24,0.00
2013-6-2,89.1,77.6,68.5,73.2,68.0,64.4,89,73,55,29.83,29.68,18,9,29,0.21
2013-6-3,68.5,64.9,57.6,67.4,52.7,30.4,96,67,33,29.95,29.80,18,9,36,0.03
2013-6-4,69.6,61.8,52.3,50.0,43.0,39.8,70,51,34,30.12,29.95,20,12,30,0.00
2013-6-5,72.0,65.1,55.4,57.4,45.0,36.7,79,50,33,30.21,30.09,7,2,7,0.00
2013-6-6,71.6,62.8,55.9,64.0,50.0,43.9,93,65,42,30.15,30.03,17,5,29,0.38
2013-6-7,59.0,57.9,57.0,56.8,54.9,53.0,93,90,86,30.03,29.80,8,5,8,0.79
2013-6-8,66.0,60.3,55.4,55.8,53.5,50.2,93,79,63,30.06,29.74,16,8,28,0.43
2013-6-9,72.3,64.1,54.9,55.3,51.4,45.6,92,66,44,30.18,30.06,14,5,23,0.00
2013-6-10,63.7,61.0,56.7,61.1,57.2,52.5,96,87,74,30.18,29.89,5,1,5,0.48
2013-6-11,68.0,62.6,59.7,64.6,58.1,51.9,96,86,72,29.89,29.56,17,7,33,2.54
2013-6-12,68.4,62.6,58.1,54.9,50.0,44.9,83,65,44,29.86,29.68,17,10,29,0.00
2013-6-13,59.0,57.6,55.8,56.6,54.8,52.6,93,90,83,29.83,29.68,9,3,9,3.71
2013-6-14,67.6,61.6,55.9,56.6,52.7,46.9,93,74,49,29.89,29.71,13,5,25,0.28
2013-6-15,72.7,65.3,57.9,56.7,46.3,36.4,86,54,31,30.00,29.89,16,8,30,0.00
2013-6-16,68.9,63.5,55.6,60.7,52.8,36.4,84,69,41,29.98,29.71,14,6,21,0.00
2013-6-17,80.6,66.5,59.4,67.7,58.5,48.6,96,77,45,29.92,29.80,31,5,60,0.16
2013-6-18,64.8,61.5,57.4,59.5,54.3,49.4,93,78,62,29.98,29.92,13,5,13,0.00
2013-6-19,68.7,61.0,52.2,54.2,46.3,40.3,92,62,37,30.18,29.98,10,5,10,0.00
2013-6-20,74.3,63.8,52.3,54.6,48.3,43.6,89,60,35,30.30,30.18,7,2,7,0.00
2013-6-21,78.1,68.6,58.3,59.6,50.7,42.0,90,57,29,30.27,30.18,7,2,7,0.00
2013-6-22,81.3,73.4,66.2,64.2,59.5,57.3,83,63,47,30.21,30.06,13,7,23,0.00
2013-6-23,87.8,78.3,70.2,69.3,63.9,59.1,73,62,48,30.12,29.98,16,9,34,0.00
2013-6-24,86.0,74.8,67.8,69.8,65.2,57.8,93,74,48,30.03,29.92,22,5,37,0.35
2013-6-25,83.1,72.3,65.5,70.7,65.2,56.0,96,80,49,30.00,29.77,16,4,30,0.20
2013-6-26,75.7,72.3,70.0,68.5,64.3,60.0,90,77,60,29.83,29.77,9,3,9,0.00
2013-6-27,80.6,73.6,66.9,69.6,64.4,58.7,93,75,49,29.83,29.62,8,3,8,0.04
2013-6-28,75.2,71.3,68.5,68.9,64.1,55.7,94,79,54,29.62,29.39,24,8,43,1.38
2013-6-29,77.2,71.4,67.8,68.1,62.9,55.9,96,76,52,29.71,29.50,15,5,28,0.08
2013-6-30,79.9,71.7,66.7,68.4,64.5,60.4,93,79,58,29.92,29.71,16,3,30,0.12
2013-7-1,73.0,70.6,68.2,69.4,67.0,64.7,94,88,78,30.03,29.92,8,4,8,0.31
2013-7-2,79.5,73.9,68.0,70.4,67.6,64.2,96,82,63,30.12,30.03,16,6,29,0.00
2013-7-3,82.4,76.3,50.2,69.8,67.5,37.7,87,75,61,30.21,30.12,12,8,12,0.00
2013-7-4,87.1,79.6,72.1,72.9,69.4,66.4,90,72,55,30.21,30.06,14,8,24,0.00
2013-7-5,85.5,78.9,73.0,72.9,69.0,61.4,90,73,55,30.18,30.03,12,5,21,0.12
2013-7-6,83.1,77.5,72.3,69.9,65.9,59.8,90,69,47,30.12,30.00,10,4,10,0.00
2013-7-7,85.3,76.3,71.1,78.1,69.0,64.9,90,79,57,30.06,29.92,15,2,15,0.12
2013-7-8,81.0,75.9,70.9,70.5,65.9,59.2,90,72,52,30.06,29.95,13,4,13,1.34
2013-7-9,79.5,74.3,70.3,71.4,65.7,58.5,100,76,52,30.09,29.98,12,3,18,0.20
2013-7-10,82.8,75.6,71.4,73.9,69.5,65.0,93,82,67,30.00,29.77,15,7,29,0.59
2013-7-11,77.7,73.8,70.9,72.1,61.3,54.3,93,67,45,29.98,29.77,14,7,26,0.00
2013-7-12,78.6,72.6,67.1,63.8,60.4,58.0,83,67,52,30.18,29.98,10,7,20,0.00
2013-7-13,77.0,71.9,67.3,69.7,63.4,58.1,84,75,66,30.30,30.18,6,2,6,0.04
2013-7-14,83.3,76.4,70.9,69.3,66.3,60.5,94,73,51,30.33,30.21,8,2,8,0.00
2013-7-15,86.4,79.0,72.5,68.1,65.0,60.9,84,64,46,30.24,30.12,14,6,24,0.00
2013-7-16,85.6,78.6,70.5,68.7,64.5,60.6,84,63,46,30.24,30.15,8,3,8,0.00
2013-7-17,88.3,80.2,72.1,71.4,66.2,61.2,90,65,42,30.21,30.00,12,3,12,0.00
2013-7-18,89.1,82.0,75.6,73.9,67.9,62.8,82,64,44,30.06,29.95,15,6,28,0.00
2013-7-19,92.5,83.1,75.4,74.0,67.4,60.1,84,61,41,29.95,29.71,21,9,44,0.00
2013-7-20,84.9,78.1,72.9,70.3,64.1,59.7,73,62,52,29.83,29.71,21,7,44,0.00
2013-7-21,80.6,73.6,66.0,65.5,60.1,55.3,86,64,44,29.98,29.83,8,2,8,0.00
2013-7-22,84.6,74.3,67.1,71.0,61.3,55.6,94,65,41,30.03,29.83,12,5,24,0.04
2013-7-23,76.5,72.9,70.9,70.9,66.1,60.8,96,80,60,29.83,29.56,12,5,12,1.38
2013-7-24,73.4,70.7,65.3,67.8,57.7,50.2,90,65,47,30.03,29.62,21,10,30,0.00
2013-7-25,70.2,65.6,58.8,57.0,52.1,48.9,79,63,47,30.12,30.03,14,7,23,0.00
2013-7-26,74.8,68.2,63.5,60.4,55.9,52.6,80,65,49,30.09,30.00,12,6,18,0.00
2013-7-27,78.8,70.4,59.5,65.5,57.9,49.4,96,68,36,30.06,29.95,13,4,20,0.00
2013-7-28,72.7,70.4,67.8,68.0,63.7,60.1,93,80,65,30.00,29.92,12,7,29,0.24
2013-7-29,74.8,70.6,66.2,66.8,57.5,46.2,93,66,42,30.06,29.95,9,5,9,0.00
2013-7-30,75.7,67.9,59.9,58.4,54.7,50.0,86,65,43,30.15,30.03,14,6,14,0.00
2013-7-31,76.3,69.0,60.4,59.4,55.2,51.5,89,63,45,30.12,29.98,8,2,8,0.00
2013-8-1,73.6,69.1,66.7,66.9,61.8,57.2,87,78,70,29.98,29.80,21,9,33,0.00
2013-8-2,77.4,70.2,48.7,65.4,57.9,40.5,93,67,44,29.83,29.77,14,6,25,0.00
2013-8-3,77.7,70.7,65.8,61.9,54.7,45.0,86,59,36,29.86,29.77,20,9,30,0.00
2013-8-4,72.9,66.4,60.3,57.9,52.8,46.2,83,63,44,29.92,29.80,20,8,34,0.08
2013-8-5,73.0,65.9,58.8,56.7,48.4,39.2,83,56,30,30.03,29.92,15,7,23,0.00
2013-8-6,76.3,66.5,54.3,64.4,49.8,39.9,89,58,33,30.09,30.00,8,4,8,0.00
2013-8-7,75.4,70.9,64.4,65.0,58.7,52.6,73,66,56,30.09,29.98,18,9,26,0.00
2013-8-8,81.9,75.4,70.0,70.2,66.3,62.0,87,74,58,30.00,29.92,17,11,28,0.00
2013-8-9,75.6,73.2,70.3,70.7,68.6,63.0,94,86,76,29.92,29.74,14,7,24,1.26
2013-8-10,74.8,68.8,62.2,64.1,52.4,38.0,81,59,32,30.12,29.83,18,11,30,0.00
2013-8-11,74.8,66.2,56.5,56.1,51.8,47.1,89,62,41,30.21,30.00,9,4,9,0.00
2013-8-12,77.0,68.7,60.1,60.1,55.1,51.1,90,64,45,30.03,29.86,12,3,12,0.00
2013-8-13,71.8,67.9,63.0,65.7,62.0,57.0,93,82,68,30.59,29.65,10,5,21,0.79
2013-8-14,67.3,62.4,56.7,54.9,51.2,48.9,80,67,54,30.86,29.80,23,11,36,0.00
2013-8-15,70.3,62.8,54.5,55.1,50.1,43.6,89,65,41,30.59,30.12,14,5,21,0.00
2013-8-16,73.2,63.8,55.8,60.2,51.4,44.9,92,67,38,31.13,30.27,7,2,7,0.00
2013-8-17,70.0,65.2,56.8,61.7,52.7,37.9,96,67,31,31.33,30.30,5,1,5,0.00
2013-8-18,70.3,65.5,59.9,61.4,58.0,53.9,93,78,59,30.86,30.12,5,1,5,0.00
2013-8-19,76.3,67.8,62.8,62.3,57.1,47.2,93,71,38,31.33,30.00,10,3,10,0.00
2013-8-20,78.1,69.3,61.0,60.5,57.2,51.7,96,68,41,31.33,30.06,15,4,15,0.00
2013-8-21,79.2,70.7,62.8,65.3,59.0,46.2,93,70,38,30.33,30.03,8,3,8,0.00
2013-8-22,81.0,73.4,66.2,67.5,63.3,56.0,90,73,44,30.92,29.86,12,5,12,0.00
2013-8-23,74.7,69.8,64.2,67.2,56.4,42.9,89,65,35,30.68,30.06,14,8,24,0.04
2013-8-24,72.7,64.8,56.7,57.5,50.5,36.8,93,63,30,31.16,30.59,7,2,7,0.00
2013-8-25,76.6,66.2,55.0,58.4,53.5,50.0,92,66,40,31.33,30.24,8,3,8,0.00
2013-8-26,73.2,68.7,65.1,67.5,61.8,54.9,94,79,65,31.33,30.30,12,6,12,0.43
2013-8-27,74.7,70.5,67.8,67.1,63.7,57.4,93,80,58,31.33,29.89,9,3,9,0.12
2013-8-28,70.2,67.9,65.8,66.7,59.5,48.6,100,76,49,30.83,29.83,8,2,8,0.00
2013-8-29,75.2,71.1,66.4,66.4,62.2,58.1,93,75,58,30.48,29.80,7,2,7,0.00
2013-8-30,76.3,72.8,68.0,67.8,63.2,58.4,88,73,54,30.01,29.80,8,4,8,0.00
2013-8-31,77.4,72.8,70.3,72.0,68.4,65.4,96,86,71,29.83,29.77,12,6,25,0.75
2013-9-1,76.8,71.9,69.1,70.3,65.6,60.0,94,81,63,29.89,29.80,5,1,5,0.00
2013-9-2,77.0,73.5,67.3,74.3,67.9,64.3,94,83,66,29.83,29.69,12,5,28,0.24
2013-9-3,70.7,66.7,62.6,65.4,58.1,48.7,96,75,48,29.89,29.75,14,5,14,0.00
2013-9-4,65.5,64.8,62.8,59.4,51.3,39.9,86,64,39,29.98,29.89,13,6,24,0.00
2013-9-5,69.1,65.0,57.9,59.1,48.4,34.5,80,58,30,30.22,29.89,16,8,30,0.00
2013-9-6,65.5,57.9,48.9,49.0,42.0,31.4,88,59,29,30.31,30.13,9,3,9,0.00
2013-9-7,69.6,61.3,52.5,58.4,51.0,44.7,89,71,46,30.13,29.89,7,3,7,0.00
2013-9-8,69.6,64.5,55.2,60.0,50.0,36.0,89,63,32,30.16,29.80,18,6,29,0.00
2013-9-9,67.3,59.0,48.0,52.2,46.0,42.5,88,64,42,30.25,30.10,13,6,24,0.00
2013-9-10,73.2,67.5,61.9,67.6,61.5,52.0,93,81,71,30.10,30.01,15,9,28,0.16
2013-9-11,83.5,75.5,69.8,71.9,67.2,56.4,93,77,54,30.10,29.92,22,9,36,0.12
2013-9-12,77.4,70.9,68.4,69.7,66.8,64.6,94,87,69,29.95,29.69,17,6,30,0.87
2013-9-13,68.5,63.0,55.0,66.4,58.1,45.6,93,84,64,29.89,29.66,12,5,12,0.55
2013-9-14,58.8,56.0,52.5,48.3,45.6,42.7,81,68,55,30.13,29.89,13,8,23,0.00
2013-9-15,64.2,56.9,47.1,52.7,47.1,41.8,92,71,52,30.22,30.07,8,3,8,0.00
2013-9-16,63.0,57.2,48.0,55.2,50.4,41.6,90,79,60,30.33,30.04,14,5,21,0.08
2013-9-17,59.7,51.0,44.1,47.0,40.4,32.1,89,70,39,30.51,30.33,8,4,8,0.00
2013-9-18,65.1,52.9,44.4,51.1,43.6,33.2,96,74,40,30.36,30.16,8,2,8,0.00
2013-9-19,64.9,57.5,48.0,61.6,47.1,35.8,92,71,40,30.19,30.07,6,1,6,0.00
2013-9-20,72.9,63.2,50.5,60.4,51.4,45.8,93,69,38,30.13,29.95,13,4,13,0.00
2013-9-21,72.9,71.7,64.9,69.8,62.6,54.2,93,74,55,29.98,29.63,20,13,41,0.28
2013-9-22,64.8,59.2,52.7,61.3,48.6,39.6,92,69,51,29.95,29.63,20,11,32,0.16
2013-9-23,59.7,52.8,46.9,44.8,40.7,37.2,82,64,45,30.10,29.95,16,9,25,0.00
2013-9-24,63.5,54.2,44.6,46.4,41.7,37.6,85,65,40,30.10,29.89,13,6,18,0.00
2013-9-25,66.6,56.6,46.2,52.1,46.2,41.4,89,70,43,30.01,29.92,6,2,6,0.00
2013-9-26,64.0,57.5,51.1,52.8,47.1,42.4,89,70,48,30.16,30.01,9,6,9,0.00
2013-9-27,60.3,55.3,47.3,54.0,49.0,45.1,93,80,62,30.31,30.16,8,3,8,0.00
2013-9-28,68.4,57.2,48.4,57.0,49.4,41.7,100,78,42,30.39,30.25,7,1,7,0.00
2013-9-29,70.0,58.3,48.2,58.1,48.7,37.2,96,74,32,30.25,30.07,6,1,6,0.00
2013-9-30,69.3,58.8,51.1,56.4,49.3,41.7,92,73,41,30.13,29.98,5,1,5,0.00
2013-10-1,71.6,59.6,48.7,55.8,50.1,45.6,92,73,48,30.04,29.92,12,2,12,0.00
2013-10-2,71.2,62.3,54.0,58.3,53.2,48.9,96,74,48,30.04,29.92,15,5,21,0.00
2013-10-3,70.3,59.9,50.0,55.2,48.3,40.7,92,68,43,30.16,30.04,12,2,12,0.00
2013-10-4,61.9,59.6,57.9,57.7,55.4,53.9,93,86,80,30.10,30.04,7,3,7,0.43
2013-10-5,62.2,59.3,56.7,55.7,52.9,48.8,90,80,69,30.13,30.07,7,4,7,0.08
2013-10-6,61.3,57.7,54.1,56.1,52.6,47.4,93,83,74,30.13,30.04,13,5,21,0.16
2013-10-7,71.8,63.0,55.4,65.2,56.5,45.0,93,80,66,30.04,29.66,22,10,40,0.04
2013-10-8,61.5,54.9,48.4,48.1,41.6,35.2,86,63,41,30.39,29.98,13,5,18,0.00
2013-10-9,61.0,50.7,41.5,50.6,42.2,33.5,96,76,39,30.51,30.36,6,1,6,0.00
2013-10-10,57.7,51.5,42.4,49.4,44.9,40.3,100,79,57,30.36,30.19,12,2,12,0.00
2013-10-11,54.5,52.5,50.5,52.2,43.4,27.6,92,73,39,30.19,30.10,8,2,8,0.00
2013-10-12,69.8,56.7,44.1,53.4,46.9,40.9,92,72,44,30.36,30.16,14,3,21,0.00
2013-10-13,66.9,60.8,55.9,53.7,48.4,42.0,81,65,43,30.42,30.33,8,5,8,0.00
2013-10-14,65.7,58.3,49.6,53.7,49.4,44.7,86,73,56,30.36,30.25,8,3,8,0.00
2013-10-15,68.2,61.5,57.7,58.9,54.0,49.6,87,77,63,30.28,30.13,8,2,8,0.00
2013-10-16,63.1,58.9,54.9,54.4,47.3,37.6,80,66,50,30.13,29.86,14,8,25,0.00
2013-10-17,67.8,60.8,57.0,56.2,49.2,39.2,87,67,42,29.92,29.63,12,5,12,0.00
2013-10-18,64.2,56.7,46.4,59.3,45.3,31.6,93,68,35,29.98,29.60,15,8,32,0.08
2013-10-19,63.5,53.7,46.4,45.7,41.2,33.4,89,65,38,29.98,29.72,17,7,29,0.00
2013-10-20,60.6,53.5,47.8,49.8,38.8,31.0,82,59,35,30.04,29.72,23,7,36,0.00
2013-10-21,64.2,56.9,48.9,43.3,36.8,30.3,76,49,34,30.13,29.92,15,10,25,0.00
2013-10-22,55.4,51.5,40.8,48.5,39.7,32.4,79,65,50,29.92,29.77,18,8,29,0.00
2013-10-23,52.9,45.1,38.1,40.9,34.2,30.2,85,67,46,29.86,29.66,8,2,8,0.00
2013-10-24,53.8,46.0,41.5,39.5,33.3,24.2,88,64,37,29.95,29.75,20,9,33,0.00
2013-10-25,46.6,41.7,39.2,37.9,34.6,29.5,85,76,53,30.13,29.95,18,8,29,0.00
2013-10-26,51.6,49.4,46.6,35.7,28.2,23.1,57,44,35,29.95,29.83,14,10,23,0.00
2013-10-27,54.1,46.3,35.8,36.7,32.6,28.1,84,60,43,30.10,29.80,18,7,33,0.00
2013-10-28,55.9,42.7,34.2,38.1,30.1,21.6,88,64,36,30.39,30.10,16,7,28,0.00
2013-10-29,46.2,37.5,31.1,30.4,22.9,14.0,74,57,32,30.48,30.36,9,4,9,0.00
2013-10-30,49.8,40.8,35.6,38.2,32.0,23.1,88,71,54,30.36,30.22,6,0,6,0.00
2013-10-31,58.1,47.6,34.3,55.7,44.7,31.6,100,90,81,30.25,29.69,17,9,37,0.12
2013-11-1,68.2,60.9,51.3,59.3,48.8,31.7,89,67,36,29.72,29.42,20,15,40,0.00
2013-11-2,57.9,49.0,41.2,48.4,41.6,34.8,92,76,55,29.86,29.63,14,4,29,0.00
2013-11-3,44.4,39.6,31.1,36.6,25.2,15.4,75,57,43,30.48,29.86,18,10,29,0.00
2013-11-4,42.1,33.1,25.9,26.5,18.1,11.4,84,56,32,30.69,30.48,12,3,23,0.00
2013-11-5,50.7,40.8,27.7,34.1,27.8,20.9,81,61,46,30.69,30.45,13,5,21,0.00
2013-11-6,58.3,52.0,44.8,45.1,40.3,33.8,79,65,53,30.45,29.95,20,12,33,0.00
2013-11-7,56.3,49.4,41.7,50.8,40.6,32.0,89,72,60,29.95,29.77,18,12,36,0.08
2013-11-8,46.8,39.7,32.4,36.6,29.5,20.6,78,67,42,30.19,29.89,24,11,41,0.00
2013-11-9,43.9,37.2,28.4,30.5,25.3,19.2,81,63,46,30.25,29.95,9,4,9,0.00
2013-11-10,51.1,44.9,39.0,39.3,31.9,24.4,82,61,46,30.01,29.77,22,10,36,0.00
2013-11-11,50.5,44.7,37.9,32.6,28.7,23.6,67,54,45,30.19,29.92,23,9,37,0.00
2013-11-12,46.8,33.4,28.4,34.6,21.8,13.8,80,63,49,30.31,29.95,22,13,40,0.00
2013-11-13,35.4,29.6,25.0,19.2,13.9,8.5,68,52,34,30.39,30.19,17,9,24,0.00
2013-11-14,49.5,36.1,28.2,23.1,17.5,11.0,65,48,27,30.19,30.07,17,6,24,0.00
2013-11-15,51.6,39.0,29.5,23.9,14.8,5.8,59,39,20,30.22,30.10,12,4,12,0.00
2013-11-16,56.1,44.9,36.9,32.9,26.4,16.8,64,49,35,30.31,30.19,7,3,7,0.00
2013-11-17,58.8,50.4,41.2,54.3,45.5,29.8,93,84,62,30.25,29.72,21,9,38,0.00
2013-11-18,60.1,54.7,43.0,54.8,38.0,23.5,86,56,30,29.80,29.48,24,15,43,0.08
2013-11-19,43.5,38.0,30.2,30.1,21.8,16.9,64,52,42,30.39,29.77,26,14,43,0.00
2013-11-20,37.4,29.9,24.3,20.9,15.2,8.5,70,55,35,30.66,30.39,7,3,7,0.00
2013-11-21,43.3,33.0,20.1,28.7,21.0,14.6,88,63,38,30.66,30.36,12,4,20,0.00
2013-11-22,46.2,41.7,38.8,41.6,36.4,26.1,93,82,57,30.36,29.89,18,2,36,0.04
2013-11-23,44.6,35.3,24.3,34.7,22.9,12.0,86,61,37,30.04,29.89,25,17,46,0.00
2013-11-24,25.7,21.8,16.5,14.3,5.7,-0.4,70,50,34,30.33,29.95,25,17,44,0.00
2013-11-25,32.9,26.1,18.1,13.9,9.5,3.2,73,50,41,30.45,30.22,17,8,25,0.00
2013-11-26,34.0,32.8,30.0,31.6,24.8,12.1,92,74,42,30.31,29.95,14,6,20,0.04
2013-11-27,38.5,35.3,32.5,36.6,31.6,24.2,100,87,71,29.95,29.42,20,9,33,0.00
2013-11-28,32.7,26.7,21.9,24.8,13.7,6.6,77,59,40,30.48,29.66,31,14,52,0.00
2013-11-29,32.0,26.3,22.6,19.8,14.4,9.0,84,62,39,30.78,30.48,16,5,24,0.00
2013-11-30,31.5,25.8,16.9,17.0,11.5,6.1,83,57,35,30.81,30.36,15,5,28,0.00
2013-12-1,38.1,32.9,28.4,28.1,24.5,15.9,84,71,53,30.36,30.04,15,3,23,0.00
2013-12-2,38.5,35.2,31.1,32.2,29.4,27.9,88,79,69,30.04,29.92,6,1,6,0.00
2013-12-3,42.1,35.1,30.4,33.8,29.1,24.0,92,79,59,30.04,29.92,14,3,14,0.00
2013-12-4,40.3,32.3,27.0,29.7,24.7,19.5,88,75,46,30.16,30.01,6,0,6,0.00
2013-12-5,52.2,44.9,30.2,49.0,40.8,25.9,92,86,74,30.16,29.89,20,10,32,0.00
2013-12-6,51.6,40.3,33.6,48.5,33.4,24.6,93,77,64,30.22,29.92,20,9,29,0.08
2013-12-7,36.0,33.5,30.4,31.9,24.1,17.5,92,69,53,30.51,30.16,17,9,32,0.04
2013-12-8,32.4,30.6,27.3,22.6,19.6,16.6,77,64,55,30.60,30.45,13,4,13,0.00
2013-12-9,36.1,32.9,29.7,33.4,28.2,19.0,93,83,60,30.45,29.92,13,7,21,0.04
2013-12-10,35.4,32.6,26.4,34.5,24.9,17.9,100,74,58,30.04,29.86,14,7,23,0.00
2013-12-11,32.9,29.9,26.2,27.3,16.9,8.7,85,59,43,30.25,30.04,20,10,32,0.00
2013-12-12,27.7,24.7,21.9,22.2,10.8,0.8,85,56,35,30.36,30.07,12,7,24,0.00
2013-12-13,29.7,25.5,17.4,24.5,12.3,7.1,85,57,49,30.42,29.98,21,11,32,0.24
2013-12-14,17.4,12.9,10.4,10.1,3.8,-1.8,85,67,57,30.60,30.07,10,7,10,0.00
2013-12-15,27.3,21.6,13.8,20.6,15.8,8.9,92,78,65,30.07,29.57,15,6,32,0.00
2013-12-16,28.9,20.7,9.7,21.7,9.9,3.3,87,63,45,30.25,29.75,18,8,37,0.00
2013-12-17,12.9,8.0,1.2,8.7,2.9,-4.9,87,79,72,30.28,30.01,5,1,5,0.00
2013-12-18,22.1,18.1,12.9,17.0,12.4,7.4,87,78,65,30.10,29.98,7,2,7,0.00
2013-12-19,32.5,28.0,21.2,26.1,18.9,12.3,78,69,54,30.10,29.98,15,6,24,0.00
2013-12-20,34.3,32.9,32.0,27.0,23.1,20.0,78,67,57,30.10,29.89,13,6,24,0.00
2013-12-21,43.3,39.1,34.3,39.7,29.7,20.1,100,70,54,29.92,29.83,16,8,25,0.04
2013-12-22,50.0,38.5,33.8,48.9,36.2,31.3,100,91,79,29.95,29.66,13,5,25,0.00
2013-12-23,45.1,40.4,34.3,40.4,35.3,23.1,93,82,61,30.22,29.95,22,5,36,0.12
2013-12-24,34.3,28.6,19.8,25.2,17.0,8.0,69,62,53,30.36,30.16,21,10,32,0.00
2013-12-25,23.0,17.9,11.8,11.4,4.0,0.4,67,55,42,30.57,30.36,20,7,32,0.00
2013-12-26,31.1,26.9,22.1,26.7,16.6,6.1,88,66,47,30.42,30.13,15,9,30,0.00
2013-12-27,33.1,28.4,21.6,21.8,17.8,12.3,80,65,53,30.31,30.22,12,4,12,0.00
2013-12-28,44.8,32.8,27.3,27.6,22.9,19.0,87,68,46,30.25,30.04,15,7,24,0.00
2013-12-29,37.9,33.0,28.2,34.7,26.8,20.9,95,79,52,30.04,29.60,9,4,9,0.35
2013-12-30,34.2,26.2,15.8,32.3,16.8,5.0,95,68,51,30.25,29.66,25,12,46,0.00
2013-12-31,23.5,18.8,13.5,19.8,10.3,2.0,88,70,46,30.25,30.04,20,6,34,0.00
2014-1-1,25.7,20.1,14.5,15.3,9.3,2.1,80,63,48,30.39,30.22,12,4,12,0.00
2014-1-2,19.8,8.6,3.9,15.3,2.2,-3.4,84,75,70,30.36,29.95,17,11,28,0.00